ZL1CTS-13 Weather Reports


time (UTC)temp
F
wind
direction
speed
knots
gust
knots
rain 1hr
in
rain 24hr
in
rain mn
in
humidity
%
barometer
mb
20260506051004 75 90 0.0 0.0 0.00 0.00 0.00 70 1017.7
20260506045003 76 45 0.0 0.9 0.00 0.00 0.00 69 1017.6
20260506044004 75 315 0.0 2.6 0.00 0.00 0.00 69 1017.7
20260506043004 75 0 0.9 1.7 0.00 0.00 0.00 70 1017.9
20260506042004 73 0 0.9 4.3 0.00 0.00 0.00 70 1017.8
20260506041004 73 282 1.7 4.3 0.00 0.00 0.00 70 1017.8
20260506040004 75 315 0.9 5.2 0.00 0.00 0.00 72 1017.7
20260506035004 73 334 1.7 4.3 0.00 0.00 0.00 70 1017.9
20260506034004 75 328 1.7 6.1 0.00 0.00 0.00 70 1017.9
20260506033005 74 315 1.7 7.0 0.00 0.00 0.00 70 1017.9
20260506032004 73 308 1.7 5.2 0.00 0.00 0.00 69 1017.9
20260506031004 75 0 2.6 6.1 0.00 0.00 0.00 72 1017.9
20260506030004 73 339 3.5 7.0 0.00 0.00 0.00 70 1017.9
20260506025004 72 344 2.6 5.2 0.00 0.00 0.00 69 1017.8
20260506024004 72 18 1.7 7.0 0.00 0.00 0.00 70 1017.7
20260506023004 72 300 2.6 8.7 0.00 0.00 0.00 69 1018.0
20260506022004 72 18 2.6 8.7 0.00 0.00 0.00 69 1017.9
20260506021004 75 11 2.6 6.1 0.00 0.00 0.00 70 1017.9
20260506020004 74 0 1.7 6.1 0.00 0.00 0.00 71 1017.9
20260506015003 72 285 2.6 6.1 0.00 0.00 0.00 70 1018.0
20260506014006 72 271 2.6 7.8 0.00 0.00 0.00 71 1018.1
20260506013004 72 306 2.6 7.8 0.00 0.00 0.00 70 1018.1
20260506012004 72 332 3.5 7.0 0.00 0.00 0.00 70 1018.2
20260506011004 75 31 2.6 7.8 0.00 0.00 0.00 69 1018.3
20260506010004 74 40 1.7 7.0 0.00 0.00 0.00 71 1018.4
20260506005003 70 323 4.3 10.4 0.00 0.00 0.00 71 1018.4
20260506004004 72 0 3.5 10.4 0.00 0.00 0.00 68 1018.5
20260506003004 75 336 4.3 8.7 0.00 0.00 0.00 67 1018.5
20260506002004 75 0 1.7 7.0 0.00 0.00 0.00 67 1018.5
20260506001003 72 45 1.7 7.8 0.00 0.00 0.00 71 1018.8
20260506000004 71 255 4.3 7.8 0.00 0.00 0.00 70 1018.9
20260505235004 72 314 3.5 8.7 0.00 0.00 0.00 68 1018.8
20260505234004 71 11 2.6 10.4 0.00 0.00 0.00 71 1019.0
20260505233004 72 0 2.6 7.0 0.00 0.00 0.00 69 1019.0
20260505232003 71 13 2.6 10.4 0.00 0.00 0.00 69 1018.9
20260505231004 71 11 2.6 12.2 0.00 0.00 0.00 69 1018.8
20260505230004 73 6 3.5 8.7 0.00 0.00 0.00 68 1018.7
20260505225003 74 26 1.7 5.2 0.00 0.00 0.00 67 1018.8
20260505224004 75 173 1.7 5.2 0.00 0.00 0.00 66 1018.8
20260505223006 75 0 0.9 5.2 0.00 0.00 0.00 64 1018.8
20260505222005 76 60 0.0 1.7 0.00 0.00 0.00 66 1018.8
20260505221005 74 73 0.0 0.9 0.00 0.00 0.00 74 1018.9
20260505220005 70 0 0.0 0.9 0.00 0.00 0.00 79 1018.9
20260505215005 68 90 0.0 0.0 0.00 0.00 0.00 82 1019.1
20260505214005 68 89 0.0 0.0 0.00 0.00 0.00 87 1019.1
20260505213004 66 45 0.0 0.0 0.00 0.00 0.00 90 1019.3
20260505212004 64 47 0.0 0.9 0.00 0.00 0.00 89 1019.3
20260505211003 63 90 0.0 0.9 0.00 0.00 0.00 89 1019.4
20260505210003 63 180 0.0 0.0 0.00 0.00 0.00 89 1019.3
20260505205004 63 180 0.0 0.9 0.00 0.00 0.00 90 1019.3
20260505204004 63 0 0.0 0.9 0.00 0.00 0.00 91 1019.3
20260505203003 62 0 0.0 0.9 0.00 0.00 0.00 92 1019.4
20260505202004 62 180 0.0 0.9 0.00 0.00 0.00 92 1019.2
20260505201004 61 0 0.0 0.0 0.00 0.00 0.00 92 1019.2
20260505200004 61 90 0.0 0.9 0.00 0.00 0.00 92 1019.2
20260505195004 60 0 0.0 0.9 0.00 0.00 0.00 93 1019.0
20260505194004 60 93 0.0 0.9 0.00 0.00 0.00 93 1019.2
20260505193003 60 225 0.0 0.9 0.00 0.00 0.00 93 1019.1
20260505192004 60 135 0.0 0.0 0.00 0.00 0.00 93 1019.0
20260505191004 60 225 0.0 0.9 0.00 0.00 0.00 92 1018.9
20260505190004 60 180 0.9 0.9 0.00 0.00 0.00 92 1018.9
20260505185004 60 225 0.0 0.9 0.00 0.00 0.00 92 1018.9
20260505184004 60 180 0.0 0.9 0.00 0.00 0.00 92 1018.9
20260505183004 60 36 0.0 2.6 0.00 0.00 0.00 92 1018.9
20260505182004 60 0 0.0 0.9 0.00 0.00 0.00 92 1019.0
20260505181004 60 135 0.0 0.0 0.00 0.00 0.00 92 1018.9
20260505180004 60 135 0.0 0.0 0.00 0.00 0.00 92 1018.9
20260505175004 60 180 0.0 0.0 0.00 0.00 0.00 92 1019.1
20260505174004 60 144 0.0 0.0 0.00 0.00 0.00 92 1019.0
20260505173003 60 0 0.0 0.0 0.00 0.00 0.00 92 1018.9
20260505172004 60 104 0.0 0.0 0.00 0.00 0.00 92 1019.1
20260505171004 60 182 0.0 0.0 0.00 0.00 0.00 92 1019.0
20260505170004 60 225 0.0 0.0 0.00 0.00 0.00 92 1019.0
20260505165004 60 227 0.0 0.0 0.00 0.00 0.00 92 1019.0
20260505164004 60 22 0.0 0.0 0.00 0.00 0.00 92 1019.2
20260505163004 60 90 0.0 0.0 0.00 0.00 0.00 92 1019.1
20260505162003 60 180 0.0 0.0 0.00 0.00 0.00 92 1019.2
20260505161004 60 45 0.0 0.0 0.00 0.00 0.00 92 1019.2
20260505153004 59 45 0.0 0.0 0.00 0.00 0.00 92 1019.4
20260505152004 60 330 0.0 0.9 0.00 0.00 0.00 92 1019.4
20260505151004 60 135 0.0 0.0 0.00 0.00 0.00 92 1019.5
20260505125004 60 90 0.0 0.9 0.00 0.00 0.00 92 1020.8
20260505124004 60 260 0.0 0.0 0.00 0.00 0.00 91 1020.8
20260505123004 60 45 0.0 0.0 0.00 0.00 0.00 91 1020.8
20260505122004 60 45 0.0 0.9 0.00 0.00 0.00 91 1020.8
20260505121004 60 0 0.0 0.0 0.00 0.00 0.00 91 1020.7
20260505120005 60 0 0.0 1.7 0.00 0.00 0.00 90 1020.8
20260505115004 60 226 0.0 0.0 0.00 0.00 0.00 90 1020.7
20260505114004 60 225 0.0 0.0 0.00 0.00 0.00 90 1020.7
20260505113004 60 0 0.0 0.9 0.00 0.00 0.00 89 1020.9
20260505112004 61 0 0.0 0.9 0.00 0.00 0.00 87 1020.9
20260505111004 61 0 0.0 0.0 0.00 0.00 0.00 87 1021.0
20260505102004 61 135 0.0 0.0 0.00 0.00 0.00 87 1021.4
20260505101003 61 110 0.0 0.9 0.00 0.00 0.00 87 1021.2
20260505100004 61 45 0.0 0.9 0.00 0.00 0.00 87 1021.1
20260505095004 61 135 0.0 0.0 0.00 0.00 0.00 87 1021.3
20260505094004 61 135 0.0 0.9 0.00 0.00 0.00 88 1021.1
20260505093004 61 45 0.0 0.9 0.00 0.00 0.00 89 1021.3
20260505092004 61 6 0.0 0.9 0.00 0.00 0.00 90 1021.3
20260505091004 60 90 0.0 0.9 0.00 0.00 0.00 90 1021.1
20260505090004 60 131 0.0 0.9 0.00 0.00 0.00 90 1021.1
20260505085004 60 135 0.0 0.0 0.00 0.00 0.00 90 1021.1
20260505084004 60 135 0.0 0.9 0.00 0.00 0.00 89 1021.2
20260505083004 61 352 0.0 0.9 0.00 0.00 0.00 89 1021.3
20260505082004 61 93 0.0 1.7 0.00 0.00 0.00 88 1021.1
20260505081005 61 45 0.0 0.0 0.00 0.00 0.00 87 1021.3
20260505080004 61 180 0.0 0.0 0.00 0.00 0.00 86 1021.3
20260505075004 61 180 0.0 0.0 0.00 0.00 0.00 86 1021.3
20260505074003 61 180 0.0 0.9 0.00 0.00 0.00 86 1021.3
20260505073004 61 0 0.0 0.0 0.00 0.00 0.00 87 1021.3
20260505072004 60 180 0.0 0.0 0.00 0.00 0.00 87 1021.4
20260505071003 60 180 0.0 0.0 0.00 0.00 0.00 87 1021.3
20260505070004 60 90 0.0 0.9 0.00 0.00 0.00 85 1021.2
20260505065004 61 90 0.0 0.9 0.00 0.00 0.00 84 1021.3
20260505064003 61 90 0.0 0.0 0.00 0.00 0.00 83 1021.3
20260505063004 61 135 0.0 0.0 0.00 0.00 0.00 83 1021.2
20260505062004 61 135 0.0 0.0 0.00 0.00 0.00 83 1021.2
20260505061004 62 90 0.0 0.0 0.00 0.00 0.00 83 1021.4
20260505060004 62 90 0.0 0.0 0.00 0.00 0.00 83 1021.3
20260505055003 62 90 0.0 0.0 0.00 0.00 0.00 83 1021.3
20260505054003 62 90 0.0 0.9 0.00 0.00 0.00 81 1021.3